Showing default

JCSAT 18, 44868

Orbit data source: Space-Track

JCSAT 18, 44868 is a Japanese payload satellite in GEO that was launched on Tue, 17 Dec 2019 UTC via an FALCON 9 launch vehicle from the Air Force Eastern Test Range (AFETR). Payloads include a variety of satellites, spacecraft, and rockets equipped with specific instruments for various scientific and technological missions. These include communications satellites like Starlink; space stations such as the ISS; scientific satellites like the Hubble; Earth observation satellites from companies like Planet Labs, Umbra, and HawkEye 360; GPS; miniature CubeSats for education and research; and military/defense satellites.

Not visible in the next 10 days
JCSAT 18 details
Identifier
44868, 2019-091A
Orbit
GEO
Last TLE update18 hours ago
Origin
Flag of JPSKPJ/KACBS (JP / JPN)
ManufacturerBoeing/ES
MissionOperational Commercial Communications
Bus & MotorBSS-702MP, R-4D?
Mass6,800 kg wet, ~3,500 kg dry
Launch date (UTC)
2019-12-17 (5 years ago)
Launch vehicle
FALCON 9
Launch site
Air Force Eastern Test Range (AFETR)
Object type
Payload
Rocket body
Debris
Shape & HBRBox + 2 Pan, Unknown HBR
Radar Cross Section56.564 m², Large (>1 m²)

Expand to show TLE details & history

TLE from 18 hours ago
0 JCSAT 18
1 44868U 19091A   24339.66611828 -.00000180  00000-0  00000-0 0  9999
2 44868   0.0080 324.0449 0000140 311.3855 188.3243  1.00268669 18407
Epoch: 2024-12-04T15:59Z
Definitive object data (Epoch: 2024-12-04T15:59:12.619Z)
Latitude0.02224°
Longitude149.96911°
Altitude35,787.542 km
Speed3.075 km/s
True Right ascension06h 54m 55s
True Declination0° 01' 20"
Sunlit
Object was in daylight at TLE epoch
Visualization TLE readout
Latitude0.02298°
Longitude67.9539°
Altitude35,787.171 km
Speed3.075 km/s
Apparent Right ascension01h 01m 58s
Apparent Declination-5° 18' 07"
Sunlit
Object is in daylight
Visualization observer readout
Local Sidereal Time08:26:31
Azimuth279.747° WNW
Elevation-19.555°
Doppler factor1
Orbital elements
Apogee altitude35,789.129 km
Perigee altitude35,787.949 km
Semi-major axis42,166.676 km
Eccentricity0.000014
Inclination0.008°
RAAN324.0449°
Arg. of periapsis311.3855°
True anomaly188.32407°
Mean anomaly188.3243°
Eccentric anomaly188.32418°
Mean motion0.25066 °/min
BSTARUnknown
Orbital period1436.19 mins
Loading historical data...
44868 neighbors
Authenticating...
Loading maneuver chart data...
Loading historical data...
Loading historical data...
Loading historical data...
Loading historical data...
Loading historical data...
Loading historical data...
Loading historical data...
Other satellites on launch #91 in the year 2019 (2019-12-17 UTC)

JCSAT 18 Visibility forecast

Observer location: undefined°, undefined

JCSAT 18 is not visible in the next 10 days
Span
Click to sort rows by Start time (UTC) header in descending order
Start Az.
Max El. time (UTC)
Max El. Az.
Max El.
End time (UTC)
End Az.
|